Change the Weather History Date:

Wednesday, November 26, 2014

  Actual Average Record
Temperature  
Mean Temperature 36 °F 33 °F  
Max Temperature 42 °F 47 °F 76 °F (1960)
Min Temperature 29 °F 20 °F -3 °F (1975)
Degree Days  
Heating Degree Days 30    
Moisture  
Dew Point 22 °F    
Average Humidity 59    
Maximum Humidity 76    
Minimum Humidity 46    
Precipitation  
Precipitation 0.00 in 0.03 in 0.52 in (1984)
Month to date precipitation T 0.85  
Year to date precipitation 22.90 21.79  
Sea Level Pressure  
Sea Level Pressure 30.28 in    
Wind  
Wind Speed 15 mph (NW)    
Max Wind Speed 24 mph    
Max Gust Speed 31 mph    
Visibility 10 miles    
Events      
T = Trace of Precipitation, MM = Missing Value Source: NWS Daily Summary

Daily Weather History Graph

Daily Weather History Graph

Search for Another Location

Airport or City:

Trip Planner

Search our weather history database for the weather conditions in past years. The results will help you decide how hot, cold, wet, or windy it might be!

Date:

Astronomy

Nov. 26, 2014 Rise Set
Actual Time 7:40 AM CST 5:18 PM CST
Civil Twilight 7:10 AM CST 5:48 PM CST
Nautical Twilight 6:37 AM CST 6:22 PM CST
Astronomical Twilight 6:04 AM CST 6:54 PM CST
Moon 11:14 AM CST (11/26) 9:52 PM CST (11/26)
Length of Visible Light 10h 38m
Length of Day
9h 38m
Waxing Crescent, 21% of the Moon is Illuminated
Nov 26
Waxing Crescent
Nov 29
First Quarter
Dec 6
Full
Dec 14
Last Quarter
Dec 21
New

Hourly Weather History & Observations

Time (CST) Temp. Windchill Dew Point Humidity Pressure Visibility Wind Dir Wind Speed Gust Speed Precip Events Conditions
12:53 AM 41.0 °F 31.9 °F 30.0 °F 65% 30.03 in 10.0 mi WNW 19.6 mph 25.3 mph N/A   Overcast
1:53 AM 39.0 °F 29.6 °F 30.0 °F 70% 30.05 in 10.0 mi West 18.4 mph 24.2 mph N/A   Mostly Cloudy
2:53 AM 37.0 °F 28.9 °F 30.0 °F 76% 30.07 in 10.0 mi WNW 12.7 mph - N/A   Partly Cloudy
3:53 AM 37.0 °F 28.9 °F 28.9 °F 73% 30.09 in 10.0 mi WNW 12.7 mph - N/A   Scattered Clouds
4:53 AM 37.0 °F 28.5 °F 25.0 °F 62% 30.11 in 10.0 mi WNW 13.8 mph - N/A   Overcast
5:53 AM 36.0 °F 26.0 °F 25.0 °F 64% 30.14 in 10.0 mi WNW 17.3 mph - N/A   Overcast
6:53 AM 36.0 °F 24.2 °F 21.0 °F 55% 30.18 in 10.0 mi NNW 24.2 mph 31.1 mph N/A   Overcast
7:53 AM 33.1 °F 20.9 °F 19.9 °F 59% 30.22 in 10.0 mi NNW 21.9 mph 31.1 mph N/A   Overcast
8:53 AM 33.1 °F 20.9 °F 19.9 °F 59% 30.25 in 10.0 mi NNW 21.9 mph 28.8 mph N/A   Scattered Clouds
9:53 AM 34.0 °F 21.5 °F 19.0 °F 54% 30.29 in 10.0 mi NNW 24.2 mph 29.9 mph N/A   Mostly Cloudy
10:53 AM 34.0 °F 22.4 °F 19.0 °F 54% 30.31 in 10.0 mi NNW 20.7 mph 28.8 mph N/A   Overcast
11:53 AM 34.0 °F 23.0 °F 19.0 °F 54% 30.32 in 10.0 mi NNW 18.4 mph - N/A   Overcast
12:53 PM 37.0 °F 27.4 °F 19.0 °F 48% 30.32 in 10.0 mi NNW 17.3 mph 23.0 mph N/A   Overcast
1:53 PM 37.0 °F 28.5 °F 18.0 °F 46% 30.32 in 10.0 mi NNW 13.8 mph - N/A   Overcast
2:53 PM 37.0 °F 28.5 °F 18.0 °F 46% 30.35 in 10.0 mi NW 13.8 mph - N/A   Overcast
3:53 PM 37.0 °F 28.9 °F 19.0 °F 48% 30.35 in 10.0 mi NNW 12.7 mph - N/A   Overcast
4:53 PM 36.0 °F 29.0 °F 19.0 °F 50% 30.37 in 10.0 mi NW 9.2 mph - N/A   Overcast
5:53 PM 35.1 °F 30.1 °F 19.9 °F 54% 30.39 in 10.0 mi NW 5.8 mph - N/A   Overcast
6:53 PM 35.1 °F 30.1 °F 21.0 °F 57% 30.40 in 10.0 mi West 5.8 mph - N/A   Overcast
7:53 PM 34.0 °F 29.8 °F 21.9 °F 61% 30.42 in 10.0 mi WNW 4.6 mph - N/A   Overcast
8:53 PM 32.0 °F 26.4 °F 21.0 °F 64% 30.45 in 10.0 mi ENE 5.8 mph - N/A   Overcast
9:53 PM 30.9 °F - 19.9 °F 64% 30.44 in 10.0 mi Calm Calm - N/A   Overcast
10:53 PM 30.9 °F 26.2 °F 19.9 °F 64% 30.43 in 10.0 mi SSE 4.6 mph - N/A   Overcast
11:53 PM 30.0 °F - 19.9 °F 66% 30.46 in 10.0 mi Calm Calm - N/A   Overcast